Probability
0 0 0 0 0 0 0 0 0 0 0 0 0 0 0 0 0 1 2 2 3 3 4 5 5 6 12 17 15 10 8 10 12 9 7 7 7 8 9 11 8 5 5
0 0 0 0 0 0 0 0 0 0 0 0 0 0 0 0 0 0 1 1 2 2 3 3 3 5 9 12 11 8 5 7 8 6 4 5 7 8 9 8 5 3 4
0 0 0 0 0 0 0 0 0 0 0 0 0 0 0 0 0 0 0 0 1 1 1 1 2 4 6 8 7 5 3 4 5 3 2 5 7 7 8 6 4 3 3
0 0 0 0 0 0 0 0 0 0 0 0 0 0 0 0 0 0 0 0 0 0 0 0 1 3 4 5 4 4 4 4 4 3 4 5 6 6 6 6 6 4 2
0 0 0 0 0 0 0 0 0 0 0 0 0 0 0 0 0 0 0 0 0 0 0 0 1 1 2 2 2 3 4 4 3 3 4 5 4 4 5 7 7 4 1
0 0 0 0 0 0 0 0 0 0 0 0 0 0 0 0 0 0 0 0 0 0 0 0 0 0 1 1 1 1 1 2 3 4 6 5 3 3 5 7 7 3 1
0 0 0 0 0 0 0 0 0 0 0 0 0 0 0 0 0 0 0 0 0 0 0 0 0 0 0 1 0 0 0 0 1 4 6 5 3 2 3 5 4 2 1
0 0 0 0 0 0 0 0 0 0 0 0 0 0 0 0 0 0 0 0 0 0 0 0 0 0 0 0 0 0 0 0 1 1 3 4 2 1 2 3 3 2 1
0 0 0 0 0 0 0 0 0 0 0 0 0 0 0 0 0 0 0 0 0 0 0 0 0 0 0 0 0 0 0 1 0 0 1 1 1 0 2 4 4 3 2
0 0 0 0 0 0 0 0 0 0 0 0 0 0 0 0 0 0 0 0 0 0 0 0 0 0 0 0 0 0 0 0 0 0 0 0 0 0 1 3 5 3 2
0 0 0 0 0 0 0 0 0 0 0 0 0 0 0 0 0 0 0 0 0 0 0 0 0 0 0 0 0 0 0 0 1 1 1 1 0 0 1 3 5 4 2
0 0 0 0 0 0 0 0 0 0 0 0 0 0 0 0 0 0 0 0 0 0 0 0 0 0 0 0 0 0 0 0 1 2 3 2 1 1 2 4 5 3 1
0 0 0 0 0 0 0 0 0 0 0 0 0 0 0 0 0 0 0 0 0 0 0 0 0 0 0 0 0 0 0 0 1 2 3 3 3 2 2 3 3 2 1
0 0 0 0 0 0 0 0 0 0 0 0 0 0 0 0 0 0 0 0 0 0 0 0 0 0 0 0 0 0 0 0 1 2 3 3 3 3 2 2 1 1 0
0 0 0 0 0 0 0 0 0 0 0 0 0 0 0 0 0 0 0 0 0 0 0 0 0 0 0 0 0 0 0 0 1 2 3 3 3 3 3 2 2 1 0
0 0 0 0 0 0 0 0 0 0 0 0 0 0 0 0 0 0 0 0 0 0 0 0 0 0 0 0 0 0 0 0 0 1 3 3 3 3 3 3 2 1 0
0 0 0 0 0 0 0 0 0 0 0 0 0 0 0 0 0 0 0 0 0 0 0 0 0 0 0 0 0 0 0 0 0 1 2 2 2 2 2 2 1 0 0
0 0 0 0 0 0 0 0 0 0 0 0 0 0 0 0 0 0 0 0 0 0 0 0 0 0 0 0 0 0 0 0 0 0 1 1 1 1 1 1 0 0 0
0 0 0 0 0 0 0 0 0 0 0 0 0 0 0 0 0 0 0 0 0 0 0 0 0 0 0 0 0 0 0 0 0 0 0 0 0 0 0 0 0 0 0
0 0 0 0 0 0 0 0 0 0 0 0 0 0 0 0 0 0 0 0 0 0 0 0 0 0 0 0 0 0 0 0 0 0 0 0 0 0 0 0 0 0 0
0 0 0 0 0 0 0 0 0 0 0 0 0 0 0 0 0 0 0 0 0 0 0 0 0 0 0 0 0 0 0 0 0 0 0 0 0 0 0 0 0 0 0
0 0 0 0 0 0 0 0 0 0 0 0 0 0 0 0 0 0 0 0 0 0 0 0 0 0 0 0 0 0 0 0 0 0 0 0 0 0 0 0 0 0 0
0 0 0 0 0 0 0 0 0 0 0 0 0 0 0 0 0 0 0 0 0 0 0 0 0 0 0 0 0 0 0 0 0 0 0 0 0 0 0 0 0 0 0
0 0 0 0 0 0 0 0 0 0 0 0 0 0 0 0 0 0 0 0 0 0 0 0 0 0 0 0 0 0 0 0 0 0 0 0 0 0 0 0 0 0 0
0 0 0 0 0 0 0 0 0 0 0 0 0 0 0 0 0 0 0 0 0 0 0 0 0 0 0 0 0 0 0 0 0 0 0 0 0 0 0 0 0 0 0
0 0 0 0 0 0 0 0 0 0 0 0 0 0 0 0 0 0 0 0 0 0 0 0 0 0 0 0 0 0 0 0 0 0 0 0 0 0 0 0 0 0 0
Wind_Speed
8 8 8 8 8 8 7 8 8 8 7 7 6 6 5 5 4 3 4 4 6 6 6 7 8 8 7 6 6 6 6 6 5 3 3 5 7 8 7 7 7 8 9
7 7 8 8 8 8 8 8 8 8 7 7 7 6 5 4 4 4 4 4 5 5 6 7 8 6 8 7 6 7 7 7 6 6 4 5 6 8 8 8 7 6 7
6 7 7 8 9 9 9 8 8 8 8 7 7 6 5 5 4 3 3 3 4 4 5 6 6 7 8 6 8 7 6 7 6 5 5 4 4 5 7 7 7 6 6
6 6 7 7 8 8 8 8 8 8 8 8 7 6 5 5 5 4 3 3 3 3 4 5 5 6 7 7 7 8 7 7 7 6 6 5 5 6 6 7 6 5 5
5 6 7 7 7 8 8 8 8 8 8 7 7 7 7 5 5 5 3 2 2 2 2 3 4 4 5 6 5 6 8 7 7 7 7 6 6 7 7 6 7 6 5
4 5 6 6 7 7 8 8 8 8 8 8 8 8 7 6 9 8 5 2 2 1 2 2 2 3 4 5 5 6 7 9 9 8 7 9 9 8 7 8 8 7 5
3 4 5 6 6 7 7 7 7 7 8 8 8 9 8 8 11 10 8 3 1 1 1 1 1 1 3 4 6 7 6 5 7 8 10 10 10 10 11 10 9 8 5
3 4 4 5 6 6 7 7 7 7 7 7 8 8 8 9 12 10 9 4 3 2 1 0 1 1 1 2 4 5 5 5 7 7 7 7 9 9 9 9 9 7 6
3 4 4 4 5 6 6 6 6 6 6 6 6 7 8 9 13 11 9 4 3 4 3 3 1 1 1 1 3 5 5 4 4 4 5 6 8 10 10 8 9 9 6
2 3 3 4 4 5 5 5 5 5 5 5 6 6 7 8 12 12 10 3 4 3 3 3 5 4 3 1 3 4 5 5 5 7 7 9 9 10 11 10 9 9 7
3 3 3 3 3 4 4 4 4 4 5 5 5 5 6 7 9 12 12 5 4 3 3 3 4 6 4 2 1 2 3 4 5 6 6 6 6 6 6 6 6 6 7
3 4 3 3 3 3 3 3 3 4 4 4 4 4 4 5 7 9 10 9 7 4 3 3 4 6 5 4 2 4 4 3 4 5 5 5 5 5 5 5 5 4 3
5 5 4 4 3 3 3 3 3 3 3 3 4 4 4 4 4 5 6 6 7 4 4 6 6 5 3 4 5 3 3 3 4 5 5 4 4 5 6 6 6 7 7
6 6 5 5 4 4 3 3 3 3 3 3 3 3 3 3 4 4 4 2 1 1 2 3 3 4 4 4 3 2 2 2 3 4 5 5 5 5 6 6 6 6 6
7 7 6 5 5 4 4 3 4 3 3 4 4 3 4 4 5 7 6 4 4 4 3 1 1 1 2 3 3 3 2 3 4 4 5 6 6 5 5 5 5 5 5
8 7 5 5 4 5 5 5 6 7 4 6 7 7 4 3 4 5 5 4 4 5 4 1 0 1 1 2 2 2 2 3 3 4 5 5 6 6 5 4 4 4 5
8 7 6 6 5 6 5 6 5 7 10 10 10 9 9 6 5 5 4 4 4 4 3 1 1 1 1 1 2 2 2 2 3 4 4 5 5 5 5 5 5 5 5
9 8 8 7 6 7 6 6 6 6 5 5 9 11 10 9 7 6 5 5 4 4 3 2 2 2 2 2 2 2 3 3 3 4 4 5 5 5 5 5 5 6 5
7 6 6 7 7 7 7 7 7 8 7 6 6 7 10 9 9 8 7 6 5 4 3 3 3 3 3 3 3 3 4 4 4 4 4 5 5 5 5 5 5 6 5
6 7 8 7 8 8 8 8 8 8 8 8 7 6 5 6 7 7 7 6 6 5 5 4 4 4 4 4 4 4 5 5 5 5 5 5 5 5 6 7 6 7 6
7 6 7 8 8 8 8 9 9 9 8 8 8 7 6 7 7 8 7 7 7 6 6 6 5 5 5 5 5 6 7 6 6 6 6 6 6 5 5 6 6 6 6
7 7 6 7 7 7 8 9 9 9 10 10 9 8 10 9 9 8 8 8 8 7 7 7 6 6 6 6 7 7 7 7 7 7 7 7 6 6 6 6 6 6 7
7 8 7 7 7 7 8 9 9 9 10 10 9 9 8 9 10 10 9 9 8 8 8 8 8 7 7 8 7 8 8 8 8 8 8 7 7 7 7 8 9 8 8
8 8 8 8 7 7 8 8 8 9 10 10 10 10 9 9 10 11 10 9 9 9 9 9 9 11 13 10 8 8 8 8 8 8 11 9 9 8 8 8 9 10 9
8 8 8 8 8 8 8 8 9 9 9 9 9 9 10 10 10 10 10 10 11 10 12 11 9 11 15 16 13 11 9 9 8 8 9 9 10 10 10 10 9 9 9
9 9 8 8 8 8 8 9 9 9 9 9 9 9 9 9 10 10 10 9 9 10 11 11 13 14 15 14 16 15 13 14 13 11 9 9 10 10 10 9 11 10 10
Wind_Direction
344 344 343 346 346 343 343 343 341 338 337 335 335 329 326 319 306 280 260 246 238 232 226 226 227 223 216 210 210 209 211 206 202 182 174 171 177 177 167 172 165 162 162
342 341 346 346 349 348 349 349 346 345 343 343 341 338 335 326 315 301 282 261 247 242 234 230 228 221 218 213 208 208 205 203 197 185 177 177 183 177 167 164 163 163 158
344 346 347 353 357 354 351 351 350 350 351 350 347 346 342 333 324 310 295 275 256 249 243 237 231 224 220 215 211 208 203 199 194 186 176 170 169 169 162 157 153 149 151
344 348 352 356 356 352 354 355 354 355 355 354 351 350 347 340 338 331 310 290 265 250 248 245 235 223 218 214 211 206 199 195 192 186 175 169 166 165 162 157 151 145 141
345 351 356 354 355 354 356 357 359 359 357 356 353 355 354 350 352 340 316 293 277 262 251 250 242 231 219 211 210 202 198 194 188 184 180 173 172 170 173 165 154 140 132
345 355 355 349 356 356 356 358 1 1 1 2 2 3 0 1 354 351 334 309 283 265 254 249 228 204 195 191 198 207 208 200 192 188 186 184 183 178 168 163 157 155 155
344 351 346 349 355 354 354 360 1 1 4 4 7 6 5 8 5 4 353 341 352 352 310 232 214 180 195 184 178 187 200 209 205 201 194 188 181 177 171 169 171 168 154
336 341 347 346 350 353 355 358 358 1 4 4 8 6 4 12 14 8 353 0 29 36 31 48 185 181 189 193 183 184 189 197 204 204 198 188 178 171 172 168 156 138 118
321 330 340 342 344 348 353 353 353 356 0 1 8 5 6 16 21 12 357 22 33 34 39 36 24 89 47 264 188 174 168 170 158 151 147 143 142 150 155 150 153 153 146
302 313 328 332 335 340 347 345 346 346 351 354 7 8 13 15 19 14 1 16 32 34 41 48 45 24 24 310 199 177 170 163 153 146 144 142 147 151 161 169 165 165 153
278 287 295 304 316 330 336 335 335 341 344 354 4 11 17 18 19 21 11 9 15 22 28 31 43 35 34 28 252 176 151 152 150 145 141 144 147 152 160 162 166 169 163
254 264 273 286 296 303 315 322 326 328 331 347 355 8 13 25 23 18 15 15 0 18 23 24 44 45 49 53 83 100 121 149 147 143 139 141 146 149 147 144 139 129 120
241 247 258 263 266 276 290 297 304 310 322 339 346 354 4 10 28 24 15 18 8 14 35 41 41 46 67 87 79 93 142 157 150 145 138 130 126 130 129 122 114 105 98
244 250 250 254 256 255 262 276 286 297 305 317 329 338 346 354 2 1 359 11 32 40 65 88 90 68 74 77 95 102 110 114 141 142 132 126 125 130 136 138 136 133 122
250 250 250 248 255 261 253 259 270 273 295 297 312 320 325 333 9 355 337 347 352 0 336 315 65 84 89 90 86 81 98 120 122 131 137 136 134 131 134 139 144 151 148
258 257 254 249 242 246 252 240 219 240 241 243 261 282 289 293 321 320 325 332 333 321 298 288 50 88 97 104 110 110 109 116 125 134 138 138 141 143 143 147 155 158 151
261 261 256 252 247 243 245 254 254 223 221 233 238 244 255 278 278 279 290 293 292 290 269 258 221 184 153 141 133 130 128 129 135 144 151 151 151 154 156 161 165 163 159
267 262 258 252 249 249 248 247 251 261 252 235 218 221 231 242 247 251 260 264 242 230 246 251 244 224 197 180 171 162 151 152 158 159 161 161 162 164 165 169 171 170 166
274 268 261 260 252 249 248 247 247 249 253 257 251 209 208 223 227 231 233 246 256 247 235 233 233 229 218 202 188 183 179 178 177 177 173 171 172 172 173 175 171 163 176
284 277 271 266 259 251 245 245 245 245 247 250 249 247 212 210 227 216 214 230 241 242 239 233 226 224 219 211 200 198 194 189 189 190 183 182 182 183 182 183 181 180 190
297 289 267 265 262 258 253 250 249 248 248 248 247 241 225 231 239 240 232 227 231 234 232 231 225 218 217 211 207 207 208 201 196 198 193 191 192 190 190 190 191 192 189
305 300 292 281 274 266 263 259 256 253 252 251 251 233 198 226 241 241 237 233 230 230 230 226 223 218 215 213 212 212 211 209 204 201 200 196 196 196 197 198 197 195 194
314 310 303 295 288 281 270 264 259 256 255 253 250 247 226 226 234 237 238 236 232 227 223 221 224 220 214 215 217 218 218 213 208 204 203 201 201 201 201 202 203 203 203
325 319 313 307 300 294 287 280 273 266 262 259 254 249 244 239 238 238 238 236 231 227 223 220 222 222 218 214 214 216 220 218 211 209 209 208 205 206 205 207 208 208 209
333 328 323 317 311 305 298 293 287 281 274 267 263 258 253 249 244 242 239 236 233 230 226 222 221 224 224 218 214 214 202 198 208 210 204 209 210 208 208 209 209 209 210
337 334 330 325 320 315 309 304 299 296 289 282 275 269 264 259 255 250 244 239 234 231 229 225 224 223 223 222 219 213 194 191 197 207 212 208 209 209 207 210 210 211 210